K9BM Weather Reports


time (UTC)temp
F
wind
direction
speed
knots
gust
knots
rain 1hr
in
rain 24hr
in
rain mn
in
humidity
%
barometer
mb
20260902004505 80 181 2.6 5.2 0.00 0.00 0.00 30 1003.6
20260902004005 80 163 0.9 6.1 0.00 0.00 0.00 31 1003.6
20260902002505 80 193 2.6 6.1 0.00 0.00 0.00 30 1003.6
20260902002005 79 195 4.3 7.8 0.00 0.00 0.00 31 1003.5
20260902001505 79 190 5.2 7.8 0.00 0.00 0.00 31 1003.7
20260902001005 80 202 4.3 7.0 0.00 0.00 0.00 30 1003.7
20260902000005 80 172 2.6 10.4 0.00 0.00 0.00 31 1003.8
20260901235504 80 141 6.1 11.3 0.00 0.00 0.00 32 1003.8
20260901234505 80 131 2.6 10.4 0.00 0.00 0.00 31 1003.9
20260901234005 80 121 6.1 11.3 0.00 0.00 0.00 32 1003.9
20260901233505 80 139 3.5 11.3 0.00 0.00 0.00 32 1003.9
20260901233005 80 144 6.1 10.4 0.00 0.00 0.00 32 1003.9
20260901232505 80 145 5.2 10.4 0.00 0.00 0.00 32 1004.0
20260901232005 80 150 1.7 11.3 0.00 0.00 0.00 33 1004.0
20260901231505 79 160 3.5 11.3 0.00 0.00 0.00 32 1004.1
20260901231005 79 130 6.1 8.7 0.00 0.00 0.00 33 1004.1
20260901230005 79 152 0.0 5.2 0.00 0.00 0.00 33 1004.4
20260901225504 79 141 0.9 10.4 0.00 0.00 0.00 33 1004.4
20260901225005 79 144 4.3 13.9 0.00 0.00 0.00 32 1004.5
20260901224005 80 158 7.0 10.4 0.00 0.00 0.00 33 1004.5
20260901223504 79 195 5.2 12.2 0.00 0.00 0.00 33 1004.7
20260901223006 78 171 5.2 12.2 0.00 0.00 0.00 34 1004.7
20260901222505 77 172 4.3 7.8 0.00 0.00 0.00 35 1004.7
20260901222005 76 158 1.7 7.0 0.00 0.00 0.00 37 1004.7
20260901221005 75 222 1.7 8.7 0.00 0.00 0.00 42 1004.8
20260901220005 74 247 6.1 8.7 0.00 0.00 0.00 40 1005.0
20260901215504 74 271 5.2 10.4 0.00 0.00 0.00 40 1005.0
20260901215004 74 266 6.1 11.3 0.00 0.00 0.00 40 1005.0
20260901214505 74 273 7.8 11.3 0.00 0.00 0.00 40 1005.0
20260901213505 75 271 7.8 12.2 0.00 0.00 0.00 38 1005.2
20260901213005 76 273 8.7 12.2 0.00 0.00 0.00 36 1005.2
20260901212505 76 257 7.0 11.3 0.00 0.00 0.00 36 1005.3
20260901211505 76 281 5.2 11.3 0.00 0.00 0.00 37 1005.3
20260901211005 76 266 7.8 11.3 0.00 0.00 0.00 37 1005.4
20260901210005 76 273 6.1 10.4 0.00 0.00 0.00 36 1005.5
20260901205504 76 275 6.1 10.4 0.00 0.00 0.00 37 1005.5
20260901205005 75 252 7.0 10.4 0.00 0.00 0.00 36 1005.5
20260901204505 75 287 7.0 11.3 0.00 0.00 0.00 37 1005.5
20260901204005 76 292 7.8 11.3 0.00 0.00 0.00 37 1005.4
20260901203505 75 261 6.1 10.4 0.00 0.00 0.00 38 1005.5
20260901203005 75 272 6.1 11.3 0.00 0.00 0.00 39 1005.5
20260901202505 75 270 7.8 12.2 0.00 0.00 0.00 39 1005.6
20260901201505 74 272 10.4 13.0 0.00 0.00 0.00 40 1005.7
20260901201004 74 273 9.6 13.0 0.00 0.00 0.00 40 1005.8
20260901200005 74 283 9.6 13.0 0.00 0.00 0.00 42 1005.9
20260901195005 73 273 8.7 13.0 0.00 0.00 0.00 42 1006.1
20260901194504 72 269 10.4 13.9 0.00 0.00 0.00 44 1006.2
20260901194005 72 277 10.4 13.9 0.00 0.00 0.00 43 1006.2
20260901193505 72 270 10.4 13.9 0.00 0.00 0.00 44 1006.3
20260901193004 72 263 8.7 12.2 0.00 0.00 0.00 44 1006.4
20260901192505 72 273 7.0 13.0 0.00 0.00 0.00 45 1006.5
20260901192005 71 279 8.7 13.0 0.00 0.00 0.00 45 1006.6
20260901191505 71 273 8.7 13.0 0.00 0.00 0.00 46 1006.6
20260901191005 71 281 8.7 12.2 0.00 0.00 0.00 45 1006.8
20260901185505 70 271 9.6 13.0 0.00 0.00 0.00 46 1007.1
20260901184505 70 271 10.4 13.9 0.00 0.00 0.00 46 1007.1
20260901184005 70 283 8.7 13.9 0.00 0.00 0.00 45 1007.2
20260901183504 71 281 10.4 14.8 0.00 0.00 0.00 44 1007.3
20260901183005 71 272 7.8 17.4 0.00 0.00 0.00 43 1007.2
20260901182504 71 276 11.3 17.4 0.00 0.00 0.00 42 1007.2
20260901182004 71 282 10.4 17.4 0.00 0.00 0.00 43 1007.3
20260901181504 71 283 10.4 17.4 0.00 0.00 0.00 43 1007.3
20260901180005 71 285 11.3 17.4 0.00 0.00 0.00 44 1007.3
20260901175504 71 277 12.2 19.1 0.00 0.00 0.00 42 1007.4
20260901175004 71 277 13.9 19.1 0.00 0.00 0.00 42 1007.4
20260901174504 71 278 10.4 17.4 0.00 0.00 0.00 44 1007.5
20260901174007 70 272 11.3 17.4 0.00 0.00 0.00 44 1007.5
20260901173504 69 273 12.2 17.4 0.00 0.00 0.00 46 1007.5
20260901173005 69 270 12.2 15.6 0.00 0.00 0.00 48 1007.5
20260901172505 68 278 10.4 15.6 0.00 0.00 0.00 48 1007.6
20260901172005 68 268 10.4 17.4 0.00 0.00 0.00 49 1007.6
20260901171505 67 257 11.3 17.4 0.00 0.00 0.00 49 1007.6
20260901171004 67 255 11.3 17.4 0.00 0.00 0.00 50 1007.7
20260901170005 66 257 11.3 17.4 0.00 0.00 0.00 49 1007.7
20260901165504 66 255 10.4 13.0 0.00 0.00 0.00 47 1007.6
20260901165004 66 262 7.8 12.2 0.00 0.00 0.00 45 1007.7
20260901164504 66 243 6.1 10.4 0.00 0.00 0.00 46 1007.7
20260901164004 65 255 7.8 10.4 0.00 0.00 0.00 45 1007.6
20260901163504 66 273 6.1 10.4 0.00 0.00 0.00 44 1007.5
20260901162504 65 245 8.7 12.2 0.00 0.00 0.00 43 1007.4
20260901161505 64 242 8.7 12.2 0.00 0.00 0.00 45 1007.4
20260901161005 64 261 7.8 10.4 0.00 0.00 0.00 42 1007.4
20260901160004 62 253 7.8 13.0 0.00 0.00 0.00 43 1007.4
20260901155005 60 250 9.6 12.2 0.00 0.00 0.00 47 1007.4
20260901154505 58 264 8.7 10.4 0.00 0.00 0.00 50 1007.5
20260901154005 58 275 4.3 7.0 0.00 0.00 0.00 50 1007.6
20260901153004 61 240 2.6 11.3 0.00 0.00 0.00 53 1007.9
20260901151504 61 275 7.8 11.3 0.00 0.00 0.00 49 1007.3
20260901151004 61 274 5.2 7.8 0.00 0.00 0.00 44 1007.5
20260901150005 61 247 5.2 8.7 0.00 0.00 0.00 44 1007.8
20260901145505 60 248 6.1 8.7 0.00 0.00 0.00 44 1008.0
20260901145004 60 246 6.1 8.7 0.00 0.00 0.00 44 1007.9
20260901144505 59 259 6.1 7.8 0.00 0.00 0.00 45 1007.9
20260901143504 59 244 4.3 5.2 0.00 0.00 0.00 48 1008.1
20260901143004 58 237 4.3 5.2 0.00 0.00 0.00 49 1008.1
20260901142504 58 227 2.6 4.3 0.00 0.00 0.00 49 1008.1
20260901142005 57 226 2.6 5.2 0.00 0.00 0.00 50 1008.0
20260901141504 57 224 4.3 6.1 0.00 0.00 0.00 50 1008.1
20260901141004 57 206 2.6 6.1 0.00 0.00 0.00 51 1008.1
20260901140005 57 200 0.0 0.0 0.00 0.00 0.00 53 1008.1
20260901135511 56 200 0.0 0.0 0.00 0.00 0.00 52 1008.1
20260901134505 56 201 0.0 0.0 0.00 0.00 0.00 53 1008.0
20260901134004 55 200 0.0 0.0 0.00 0.00 0.00 55 1007.9
20260901133004 55 199 0.0 2.6 0.00 0.00 0.00 54 1007.9
20260901132504 54 199 1.7 2.6 0.00 0.00 0.00 55 1007.8
20260901132004 54 199 0.0 0.9 0.00 0.00 0.00 54 1007.8
20260901131504 53 199 0.0 0.9 0.00 0.00 0.00 56 1007.7
20260901131004 52 199 0.0 2.6 0.00 0.00 0.00 58 1007.5
20260901130004 53 199 1.7 6.1 0.00 0.00 0.00 56 1007.5
20260901125504 53 197 4.3 6.1 0.00 0.00 0.00 56 1007.5
20260901125004 54 194 4.3 5.2 0.00 0.00 0.00 54 1007.5
20260901124505 55 200 2.6 4.3 0.00 0.00 0.00 53 1007.5
20260901124005 54 201 0.0 0.9 0.00 0.00 0.00 51 1007.5
20260901123005 52 201 0.9 4.3 0.00 0.00 0.00 55 1007.4
20260901122505 52 201 2.6 4.3 0.00 0.00 0.00 57 1007.5
20260901121505 52 201 2.6 7.8 0.00 0.00 0.00 57 1007.6
20260901121005 52 198 6.1 7.8 0.00 0.00 0.00 57 1007.6
20260901120005 52 197 4.3 5.2 0.00 0.00 0.00 58 1007.5
20260901114504 53 199 1.7 2.6 0.00 0.00 0.00 56 1007.5
20260901114005 52 198 1.7 2.6 0.00 0.00 0.00 56 1007.4
20260901113505 52 198 1.7 2.6 0.00 0.00 0.00 58 1007.5
20260901113004 51 198 1.7 4.3 0.00 0.00 0.00 59 1007.5
20260901112504 51 198 1.7 5.2 0.00 0.00 0.00 59 1007.6
20260901112004 51 197 4.3 5.2 0.00 0.00 0.00 59 1007.7
20260901111504 51 199 4.3 5.2 0.00 0.00 0.00 59 1007.8
20260901111004 51 198 4.3 6.1 0.00 0.00 0.00 59 1007.8
20260901105504 51 198 3.5 5.2 0.00 0.00 0.00 59 1007.9
20260901105004 52 197 3.5 5.2 0.00 0.00 0.00 58 1007.9
20260901104504 52 211 2.6 2.6 0.00 0.00 0.00 57 1007.8
20260901104004 53 216 2.6 2.6 0.00 0.00 0.00 55 1007.9
20260901103504 53 270 1.7 2.6 0.00 0.00 0.00 54 1007.9
20260901103005 54 270 0.9 2.6 0.00 0.00 0.00 54 1008.0
20260901102505 54 270 0.9 2.6 0.00 0.00 0.00 54 1008.0
20260901102004 54 270 1.7 2.6 0.00 0.00 0.00 54 1008.1
20260901100004 52 270 0.9 2.6 0.00 0.00 0.00 56 1008.1
20260901095505 53 270 1.7 2.6 0.00 0.00 0.00 54 1008.1
20260901094504 53 273 2.6 5.2 0.00 0.00 0.00 55 1008.1
20260901094005 53 282 0.0 0.0 0.00 0.00 0.00 55 1008.2
20260901093504 53 297 0.0 0.0 0.00 0.00 0.00 54 1008.3
20260901093005 53 298 0.0 0.0 0.00 0.00 0.00 53 1008.1
20260901092504 54 354 0.0 0.0 0.00 0.00 0.00 52 1008.1
20260901092004 55 353 0.0 0.0 0.00 0.00 0.00 53 1008.1
20260901091504 54 359 0.0 0.0 0.00 0.00 0.00 53 1008.1
20260901091005 54 359 0.0 0.0 0.00 0.00 0.00 55 1008.1
20260901090004 53 359 0.0 0.0 0.00 0.00 0.00 55 1008.1
20260901085505 54 359 0.0 0.0 0.00 0.00 0.00 55 1008.1
20260901085004 54 359 0.0 0.0 0.00 0.00 0.00 55 1008.2
20260901084005 55 359 0.0 0.0 0.00 0.00 0.00 54 1008.1
20260901083505 55 359 0.0 0.9 0.00 0.00 0.00 53 1008.1
20260901082504 55 359 0.9 2.6 0.00 0.00 0.00 53 1008.1
20260901082004 55 359 1.7 5.2 0.00 0.00 0.00 53 1008.1
20260901081504 55 6 2.6 6.1 0.00 0.00 0.00 53 1008.1
20260901081004 56 0 4.3 8.7 0.00 0.00 0.00 52 1008.1
20260901080004 56 347 4.3 7.0 0.00 0.00 0.00 51 1008.1
20260901075504 56 14 2.6 7.0 0.00 0.00 0.00 51 1008.1
20260901075004 56 15 3.5 7.0 0.00 0.00 0.00 50 1008.2
20260901074504 57 25 2.6 6.1 0.00 0.00 0.00 50 1008.1
20260901074004 57 13 1.7 4.3 0.00 0.00 0.00 49 1008.1
20260901073505 57 10 1.7 2.6 0.00 0.00 0.00 48 1008.3
20260901073005 57 343 0.0 2.6 0.00 0.00 0.00 48 1008.3
20260901072504 58 343 0.0 2.6 0.00 0.00 0.00 48 1008.4
20260901072005 58 343 2.6 5.2 0.00 0.00 0.00 47 1008.3
20260901071504 58 308 2.6 5.2 0.00 0.00 0.00 46 1008.3
20260901070005 57 198 0.0 0.0 0.00 0.00 0.00 44 1008.4
20260901065504 57 199 0.0 2.6 0.00 0.00 0.00 46 1008.4
20260901064004 57 199 1.7 2.6 0.00 0.00 0.00 45 1008.4
20260901063504 57 198 1.7 2.6 0.00 0.00 0.00 47 1008.4
20260901063004 58 198 1.7 2.6 0.00 0.00 0.00 47 1008.4
20260901062504 57 199 0.9 4.3 0.00 0.00 0.00 46 1008.4
20260901062004 58 198 2.6 4.3 0.00 0.00 0.00 47 1008.5
20260901061007 58 197 4.3 6.1 0.00 0.00 0.00 46 1008.5
20260901060004 58 174 3.5 5.2 0.00 0.00 0.00 46 1008.4
20260901055004 60 89 0.0 0.0 0.00 0.00 0.00 43 1008.3
20260901054505 61 84 0.0 0.0 0.00 0.00 0.00 39 1008.4
20260901053504 62 82 0.0 0.0 0.00 0.00 0.00 36 1008.4
20260901053004 62 82 0.0 0.0 0.00 0.00 0.00 36 1008.5
20260901052505 62 82 0.0 0.0 0.00 0.00 0.00 36 1008.5
20260901052004 63 82 0.0 0.0 0.00 0.00 0.00 35 1008.5
20260901051504 63 82 0.0 0.0 0.00 0.00 0.00 35 1008.6
20260901051004 64 83 0.0 0.0 0.00 0.00 0.00 33 1008.7
20260901050004 64 83 0.0 2.6 0.00 0.00 0.00 31 1008.8
20260901045005 64 83 0.9 4.3 0.00 0.00 0.00 32 1008.9
20260901044506 64 84 0.0 6.1 0.00 0.00 0.00 32 1008.9
20260901044004 64 83 2.6 6.1 0.00 0.00 0.00 32 1008.9
20260901043504 65 54 2.6 4.3 0.00 0.00 0.00 32 1008.9
20260901043004 65 145 1.7 7.0 0.00 0.00 0.00 31 1008.9
20260901042004 66 151 5.2 10.4 0.00 0.00 0.00 30 1008.8
20260901041504 66 157 7.0 10.4 0.00 0.00 0.00 30 1008.7
20260901041004 66 155 7.0 10.4 0.00 0.00 0.00 30 1008.7
20260901035004 66 155 7.8 10.4 0.00 0.00 0.00 30 1008.8
20260901034504 66 156 7.8 10.4 0.00 0.00 0.00 30 1008.8
20260901034004 66 154 7.8 10.4 0.00 0.00 0.00 30 1008.8
20260901033504 67 153 8.7 11.3 0.00 0.00 0.00 30 1008.8
20260901033004 67 153 7.0 11.3 0.00 0.00 0.00 30 1008.8
20260901032504 67 149 7.8 10.4 0.00 0.00 0.00 30 1008.9
20260901032004 67 149 6.1 10.4 0.00 0.00 0.00 30 1008.8
20260901031504 67 151 7.8 10.4 0.00 0.00 0.00 30 1008.8
20260901031004 67 151 6.1 10.4 0.00 0.00 0.00 30 1008.7
20260901030004 67 147 6.1 8.7 0.00 0.00 0.00 30 1008.6
20260901025504 67 148 6.1 8.7 0.00 0.00 0.00 30 1008.7
20260901025005 67 146 6.1 8.7 0.00 0.00 0.00 30 1008.6
20260901024005 67 144 6.1 8.7 0.00 0.00 0.00 31 1008.5
20260901023504 68 140 7.0 10.4 0.00 0.00 0.00 29 1008.3
20260901023005 68 136 7.0 10.4 0.00 0.00 0.00 28 1008.3
20260901022504 69 135 7.8 10.4 0.00 0.00 0.00 28 1008.4
20260901022004 69 135 8.7 10.4 0.00 0.00 0.00 27 1008.4
20260901021504 69 139 7.8 10.4 0.00 0.00 0.00 28 1008.4
20260901021004 69 136 7.8 8.7 0.00 0.00 0.00 28 1008.3
20260901020004 71 130 7.0 8.7 0.00 0.00 0.00 27 1008.2
20260901015504 72 127 7.0 10.4 0.00 0.00 0.00 25 1008.3
20260901015005 73 125 7.0 11.3 0.00 0.00 0.00 25 1008.2
20260901014504 73 123 8.7 11.3 0.00 0.00 0.00 25 1008.4
20260901014004 73 121 7.8 11.3 0.00 0.00 0.00 25 1008.5
20260901013504 74 116 8.7 11.3 0.00 0.00 0.00 25 1008.4
20260901013004 74 112 9.6 11.3 0.00 0.00 0.00 25 1008.3
20260901012504 75 111 8.7 11.3 0.00 0.00 0.00 25 1008.3
20260901012004 75 114 7.0 10.4 0.00 0.00 0.00 25 1008.3
20260901011504 76 114 7.8 11.3 0.00 0.00 0.00 24 1008.3
20260901011004 76 105 7.8 11.3 0.00 0.00 0.00 23 1008.2
20260901010004 77 97 7.8 12.2 0.00 0.00 0.00 22 1008.2
20260901005504 77 96 7.8 12.2 0.00 0.00 0.00 22 1008.2